Regional Weather Roundup
Issued by NWS

Home | Current Version | Previous Version | Text Only | Print | Product List | Glossary Off
Versions: 1 2 3 4 5 6 7 8 9 10 11 12 13 14 15 16 17 18 19 20 21 22 23 24 25 26 27 28 29 30 31 32 33 34 35 36 37 38 39 40 41 42 43 44 45 46 47 48 49 50

340
ASUS43 KMPX 220510
RWRMN
WEATHER ROUNDUP FOR MINNESOTA
NATIONAL WEATHER SERVICE TWIN CITIES/CHANHASSEN MN
1200 AM CDT SUN APR 22 2018


NOTE: "FAIR" INDICATES FEW OR NO CLOUDS BELOW 12,000 FEET WITH NO
SIGNIFICANT WEATHER AND/OR OBSTRUCTIONS TO VISIBILITY. N/A MEANS
CURRENT SKY AND/OR WEATHER CONDITIONS ARE NOT AVAILABLE.

MNZ060>063-068>070-220600-
   Twin Cities Metro

CITY           SKY/WX    TMP DP  RH WIND       PRES   REMARKS
TWIN CITIES    FAIR      50  33  52 S5        30.35F
ST PAUL        FAIR      39  35  86 CALM      30.36F
CRYSTAL        FAIR      39  24  55 CALM      30.34F
BLAINE         FAIR      39  25  56 CALM      30.34F
LAKEVILLE      FAIR      34  32  93 CALM      30.35F
EDEN PRAIRIE   FAIR      44  32  62 S5        30.34S
SOUTH ST PAUL  FAIR      41  32  70 CALM      30.35F
LAKE ELMO      FAIR      36  32  87 CALM      30.36S
$$
MNZ001>005-007-008-013>017-022>024-027-028-220600-
   Northwest Minnesota

CITY           SKY/WX    TMP DP  RH WIND       PRES   REMARKS
BEMIDJI        FAIR      36  26  67 S5        30.29S
HALLOCK        FAIR      46  43  87 S14       30.20F
ROSEAU         FAIR      41  36  81 SE6       30.24F
WARROAD        FAIR      43  37  81 S5        30.25F
THIEF RVR FALL FAIR      43  37  79 S8        30.26F
CROOKSTON      FAIR      46  39  76 S14       30.26F
FOSSTON        FAIR      39  32  75 S5        30.28F
DETROIT LAKES  FAIR      41  34  75 CALM      30.30F
MOORHEAD       FAIR      45  37  76 S13       30.29S
PARK RAPIDS    FAIR      43  32  65 S8        30.29F
MAHNOMEN       FAIR      40  34  79 S8        30.27F
$$
MNZ006-009>011-018-025>026-220600-
   North Central Minnesota

CITY           SKY/WX    TMP DP  RH WIND       PRES   REMARKS
BAUDETTE       FAIR      39  33  79 CALM      30.26F
FLAG ISLAND    FAIR      39  28  65 SE6       30.24F
INTL FALLS     FAIR      36  25  64 CALM      30.28F
WASKISH        FAIR      45  28  53 S5        30.27F
BIG FORK       FAIR      34  23  64 CALM      30.30F
LONGVILLE      FAIR      30  25  80 CALM      30.32S
GRAND RAPIDS   FAIR      37  19  48 S5        30.33F
CRANE LAKE     FAIR      27  25  93 CALM      30.33S
ORR            FAIR      37  18  44 SE3       30.29S
COOK           FAIR      39  19  45 CALM      30.32F
WALKER         FAIR      39  28  64 CALM      30.31S
$$
MNZ012-019>021-037-220600-
   Northeast Minnesota

CITY           SKY/WX    TMP DP  RH WIND       PRES   REMARKS
DULUTH         FAIR      40  19  43 CALM      30.33F
ELY            FAIR      32  19  59 CALM      30.33S
HIBBING        FAIR      30  22  72 CALM      30.32F
EVELETH        FAIR      30  21  69 CALM      30.34F
DULUTH HARBOR  FAIR      36  30  80 E3        30.35F
TWO HARBORS    FAIR      30  23  74 CALM      30.33F
SILVER BAY     FAIR      28  21  74 CALM      30.34S
GRAND MARAIS     N/A     30  23  75 CALM      30.37S
G MARAIS ARPRT FAIR      28  19  69 CALM      30.35S
$$
MNZ029>031-032-039>041-046>048-054>057-064-220600-
   West Central Minnesota

CITY           SKY/WX    TMP DP  RH WIND       PRES   REMARKS
FERGUS FALLS   FAIR      39  34  81 S6        30.28F
WHEATON        CLEAR     43  36  75 S7        30.32S
MORRIS         CLEAR     37  36  93 S6        30.31S
ALEXANDRIA     FAIR      40  32  73 CALM      30.31F
ELBOW LAKE     FAIR      40  34  77 E7        30.31F
WADENA         FAIR      39  30  70 CALM      30.31F
GLENWOOD       FAIR      39  36  87 S3        30.32F
APPLETON       CLEAR     41  34  75 S5        30.33S
BENSON         CLEAR     39  36  87 CALM      30.35R
ORTONVILLE     CLEAR     39  34  81 S3        30.32S
MADISON        CLEAR     39  36  87 S3        30.32F
WILLMAR        FAIR      37  36  93 CALM      30.35S
$$
MNZ033>034-036-042>043-049>051-058-059-220600-
   Central Minnesota

CITY           SKY/WX    TMP DP  RH WIND       PRES   REMARKS
ST CLOUD       FAIR      35  30  82 CALM      30.33F
SAUK CENTRE    FAIR      38  33  82 CALM      30.32F
PAYNESVILLE    FAIR      36  34  91 CALM      30.33F
AITKIN         FAIR      27  21  80 CALM      30.32S
PINE RIVER     FAIR      32  27  80 CALM      30.34F
BRAINERD       FAIR      33  25  72 CALM      30.33S
STAPLES        FAIR      43  30  61 SE5       30.32F
LONG PRAIRIE   FAIR      36  32  87 CALM      30.32F
LITTLE FALLS   FAIR      36  27  69 CALM      30.33F
LITCHFIELD     FAIR      37  34  87 CALM      30.34S
BUFFALO        FAIR      36  30  80 CALM      30.35F
MAPLE LAKE     FAIR      35  31  88 CALM      30.34F
HUTCHINSON     FAIR      37  35  92 CALM      30.35F
$$
MNZ037-044-045-052-053-220600-
   East Central Minnesota

CITY           SKY/WX    TMP DP  RH WIND       PRES   REMARKS
PRINCETON      FAIR      34  27  75 CALM      30.34F
MORA           FAIR      32  27  80 CALM      30.36F
CAMBRIDGE      FAIR      37  23  56 CALM      30.35S
RUSH CITY      FAIR      35  26  71 CALM      30.34F
MOOSE LAKE     FAIR      32  21  64 CALM      30.33S
HINCKLEY       FAIR      32  25  74 CALM      30.34F
CLOQUET        FAIR      34  16  47 CALM      30.33F
MCGREGOR       FAIR      32  23  69 CALM      30.34S
$$
MNZ071>073-080-081-089-090-097-098-220600-
   Southwest Minnesota

CITY           SKY/WX    TMP DP  RH WIND       PRES   REMARKS
MONTEVIDEO     CLEAR     39  34  81 SW7       30.33F
GRANITE FALLS  CLEAR     40  36  84 S3        30.35S
CANBY          CLEAR     35  32  89 CALM      30.33F
MARSHALL       CLEAR     35  31  85 CALM      30.33F
REDWOOD FALLS  CLEAR     39  34  82 S8        30.33F
OLIVIA         CLEAR     41  36  81 SE3       30.33S
PIPESTONE      CLEAR    N/A N/A N/A E6        30.30F
WINDOM         CLEAR     36  21  55 E5        30.32F
WORTHINGTON    CLOUDY    36  31  82 CALM      30.31F
JACKSON        CLOUDY    36  32  87 E6        30.32S
TRACY          CLEAR     40  32  71 S3        30.32F
SLAYTON        CLEAR     36  32  86 CALM      30.32F
$$
MNZ065>067-074>077-082>085-091>093-220600-
   South Central Minnesota

CITY           SKY/WX    TMP DP  RH WIND       PRES   REMARKS
MANKATO        FAIR      42  36  79 E7        30.34F
NEW ULM        CLEAR     43  34  70 CALM      30.33F
ST JAMES       CLEAR     36  32  87 NE3       30.34S
FAIRMONT       PTCLDY    39  32  76 CALM      30.33S
GLENCOE        FAIR      39  36  89 CALM      30.34F
OWATONNA       FAIR      39  36  87 E3        30.34F
WASECA         FAIR      39  34  81 E7        30.35F
ALBERT LEA     FAIR      37  30  75 E3        30.34S
$$
MNZ078>079-086>088-094>096-220600-
   Southeast Minnesota

CITY           SKY/WX    TMP DP  RH WIND       PRES   REMARKS
ROCHESTER      FAIR      42  34  73 CALM      30.35F
RED WING       FAIR      36  28  75 CALM      30.35F
STANTON        FAIR      35  32  88 SW5       30.34F WCI  31
DODGE CENTER   FAIR      41  34  75 E3        30.35F
WINONA         FAIR      41  36  81 CALM      30.35S
AUSTIN         FAIR      34  30  86 CALM      30.34F
PRESTON        FAIR      42  32  69 CALM      30.35F
$$
ABBREVIATIONS USED IN REMARKS
   TC - TEMPERATURES IN CELSIUS
  WCI - WIND CHILL INDEX
   HX - HEAT INDEX
  VSB - VISIBILITY
$$




USA.gov is the U.S. government's official web portal to all federal, state and local government web resources and services.